SCP
0 0 0 0 0 0 0 0 0 0 0 0 0 0 0 0 0 0 0 0 0 0 0 0 0 0 0 0 0 0 0 0 0 0 0 0 0 0 0 0 0 0 0 0 0 0 0 0 0 0 0 0 0 0
0 0 0 0 0 0 0 0 0 0 0 0 0 0 0 0 0 0 0 0 0 0 0 0 0 0 0 0 0 0 0 0 0 0 0 0 0 0 0 0 0 0 0 0 0 0 0 0 0 0 0 0 0 0
0 0 0 0 0 0 0 0 0 0 0 0 0 0 0 0 0 0 0 0 0 0 0 0 0 0 0 0 0 0 0 0 0 0 0 0 0 0 0 0 0 0 0 0 0 0 0 0 0 0 0 0 0 0
0 0 0 0 0 0 0 0 0 0 0 0 0 0 0 0 0 0 0 0 0 0 0 0 0 0 0 0 0 0 0 0 0 0 0 0 0 0 0 0 0 0 0 0 0 0 0 0 0 0 0 0 0 0
0 0 0 0 0 0 0 0 0 0 0 0 0 0 0 0 0 0 0 0 0 0 0 0 0 0 0 0 0 0 0 0 0 0 0 0 0 0 0 0 0 0 0 0 0 0 0 0 0 0 0 0 0 0
0 0 0 0 0 0 0 0 0 0 0 0 0 0 0 0 0 0 0 0 0 0 0 0 0 0 0 0 0 0 0 0 0 0 0 0 0 0 0 0 0 0 0 0 0 0 0 0 0 0 0 0 0 0
0 0 0 0 0 0 0 0 0 0 0 0 0 0 0 0 0 0 0 0 0 0 0 0 0 0 0 0 0 0 0 0 0 0 0 0 0 0 0 0 0 0 0 0 0 0 0 0 0 0 0 0 0 0
0 0 0 0 0 0 0 0 0 0 0 0 0 0 0 0 0 0 0 0 0 0 0 0 0 0 0 -0 -0 0 0 0 0 0 0 0 0 0 0 0 0 0 0 0 0 0 0 0 0 0 0 0 0 0
0 0 0 0 0 0 0 0 0 0 0 0 0 0 0 0 0 0 0 0 0 0 0 0 0 0 0 0 0 0 0 0 0 0 0 0 0 0 0 0 0 0 0 0 0 0 0 0 0 -0 -0 -0 0 0
0 0 0 0 0 0 0 0 0 0 0 0 0 0 0 0 0 0 0 0 0 0 0 0 0 0 0 0 0 0 0 0 0 0 0 0 0 0 0 0 0 0 0 0 0 0 0 -0 -0 0 0 0 -0 0
0 0 0 0 0 0 0 0 0 0 0 0 0 0 0 0 0 0 0 0 0 0 -0 0 0 -0 0 0 0 0 0 0 -0 -0 0 0 0 0 0 0 0 0 0 0 0 0 0 0 0 0 0 0 0 0
0 0 0 0 0 0 0 0 0 0 0 0 0 0 0 0 0 0 0 0 0 -0 0 0 0 0 0 0 0 0 0 0 -0 0 0 0 -0 0 0 -0 -0 -0 0 0 0 0 0 0 0 -0 0 0 0 0
0 0 0 0 0 0 0 0 0 0 0 0 0 0 0 0 0 0 0 0 0 0 0 0 0 0 0 0 0 0 0 0 0 0 0 0 0 0 0 0 0 0 0 0 0 0 0 -0 -0 -0 -0 -0 0 0
0 0 0 -0 -0 -0 0 0 0 0 0 0 0 0 0 0 0 0 0 0 0 0 0 -0 0 0 0 0 0 0 0 0 0 0 0 0 0 0 -0 -0 -0 -0 -0 -0 0 -0 -0 -0 -0 0 0 -0 -0 -0
0 -0 -0 -0 -0 -0 0 0 0 0 0 0 0 0 0 0 0 0 0 0 0 0 -0 -0 0 0 0 0 0 0 0 0 -0 0 0 -0 -0 -0 -0 0 0 0 -0 -0 -0 -0 -0 -0 -0 0 -0 -0 -0 -0
-0 -0 0 -0 -0 0 0 0 0 0 0 0 0 0 0 0 0 0 0 0 0 0 -0 -0 -0 0 0 0 0 0 0 0 0 -0 -0 -0 -0 -0 0 -0 0 0 -0 -0 -0 -0 -0 -0 -0 -0 -0 -0 -0 -0
-0 0 0 0 0 0 0 0 0 0 0 0 0 0 0 0 0 0 0 0 0 0 -0 -0 0 0 0 0 0 0 0 -0 -0 -0 -0 -0 -0 -0 -0 -0 -0 -0 -0 -0 -0 -0 -0 -0 -0 0 0 -0 -0 -0
0 0 0 0 0 0 0 0 0 0 0 0 0 0 0 0 0 0 0 0 0 0 0 0 -0 -0 0 0 0 0 0 -0 -0 -0 -0 -0 -0 -0 -0 -0 -0 -0 -0 0 0 0 -0 -0 0 -0 0 -0 -0 -0
0 0 0 0 0 0 0 0 0 0 0 0 0 0 0 0 0 0 0 0 0 0 0 0 0 0 0 0 -0 -0 -0 -0 -0 0 -0 0 -0 -0 -0 -0 -0 0 0 0 0 0 0 0 -0 0 0 -0 -0 -0
0 0 0 -0 0 0 0 0 0 0 0 0 0 0 0 0 0 0 0 0 0 0 0 0 0 0 -0 -0 -0 -0 -0 0 0 0 0 0 -0 -0 -0 -0 0 -0 0 0 0 -0 0 0 -0 0 0 -0 -0 -0
0 0 0 0 0 0 0 0 0 0 0 0 0 0 0 0 0 -0 0 0 0 0 0 0 0 0 -0 -0 -0 -0 0 0 0 0 -0 -0 -0 -0 -0 -0 -0 0 0 0 -0 -0 -0 -0 -0 -0 -0 -0 -0 -0
0 0 0 0 0 0 0 0 0 0 0 0 0 0 0 -0 -0 0 0 0 0 0 0 -0 0 0 -0 0 0 -0 0 0 0 0 -0 -0 -0 -0 -0 -0 -0 -0 0 -0 -0 -0 -0 -0 -0 -0 -0 -0 -0 0
0 0 0 0 0 0 0 0 0 0 0 0 0 0 0 -0 -0 -0 -0 -0 0 0 0 0 0 -0 0 0 0 0 0 0 0 0 -0 -0 -0 -0 -0 -0 -0 -0 -0 -0 -0 -0 -0 -0 -0 -0 -0 -0 -0 0
0 0 0 0 0 0 0 0 0 0 0 0 0 0 0 0 0 0 -0 -0 -0 -0 0 0 0 0 0 0 0 0 0 0 0 0 -0 -0 -0 -0 -0 -0 -0 -0 -0 -0 -0 -0 -0 -0 -0 -0 -0 -0 0 0
0 0 0 0 0 0 0 0 0 0 0 0 0 0 0 0 0 0 -0 -0 -0 -0 -0 -0 -0 0 0 -0 -0 -0 0 0 0 -0 -0 -0 -0 -0 -0 -0 -0 -0 -0 -0 -0 -0 -0 -0 -0 -0 -0 -0 -0 0
0 0 0 0 0 0 0 0 0 0 0 0 0 0 0 0 0 0 -0 -0 -0 -0 0 0 -0 0 0 0 0 0 0 0 0 -0 -0 -0 -0 -0 -0 -0 -0 -0 -0 -0 -0 -0 -0 -0 -0 -0 -0 -0 -0 0
0 0 0 0 0 0 0 0 0 0 0 0 0 0 0 0 0 0 -0 -0 -0 -0 -0 -0 0 0 0 0 0 0 0 0 0 0 0 0 -0 -0 -0 -0 -0 -0 -0 -0 -0 -0 -0 -0 -0 -0 -0 -0 -0 0
0 0 0 0 0 0 0 0 0 0 0 0 0 0 0 0 0 0 -0 0 0 0 0 0 0 0 0 0 0 0 0 0 0 0 0 0 -0 -0 -0 -0 -0 -0 -0 -0 -0 0 0 0 0 0 0 0 0 0
0 0 0 0 0 0 0 0 0 0 0 0 0 0 0 0 0 0 0 0 0 0 0 0 0 0 0 0 0 0 0 0 0 -0 -0 -0 -0 -0 -0 -0 -0 -0 -0 0 -0 0 0 0 0 0 0 0 0 0
0 0 0 0 0 0 0 0 0 0 0 0 0 0 0 0 0 0 0 0 0 0 0 0 0 0 0 0 0 0 0 0 -0 -0 -0 -0 -0 0 -0 -0 -0 -0 -0 0 0 0 0 0 0 0 0 0 0 0
0 0 0 0 0 0 0 0 0 0 0 -0 -0 0 0 -0 0 0 0 0 0 0 0 0 0 0 0 0 0 0 0 0 -0 0 0 0 0 0 0 -0 -0 -0 -0 0 0 0 0 0 0 0 0 0 0 0
0 0 0 -0 -0 0 -0 -0 -0 -0 -0 -0 -0 0 0 0 0 -0 0 0 0 0 0 0 0 -0 0 0 0 0 -0 -0 -0 -0 -0 -0 -0 -0 -0 0 -0 0 0 0 0 0 0 0 0 0 0 0 0 0
-0 -0 -0 -0 -0 -0 -0 -0 -0 -0 -0 -0 -0 0 0 0 -0 0 0 0 0 -0 -0 -0 -0 -0 -0 -0 -0 -0 -0 -0 -0 -0 -0 -0 -0 -0 -0 0 0 0 0 0 0 0 0 0 0 0 0 0 0 0
Wind_Speed_500mb
40 36 33 33 32 34 34 32 37 39 36 38 40 43 41 44 40 37 50 57 53 52 77 71 52 52 28 39 23 14 11 13 12 20 14 10 10 18 6 12 20 19 20 10 5 10 20 28 16 16 14 6 21 28
39 36 39 38 39 39 38 40 37 42 45 42 43 42 47 45 43 42 55 50 50 68 74 40 49 69 82 83 55 28 10 8 28 9 3 3 9 6 13 25 3 8 17 14 27 20 11 55 29 55 20 24 27 30
39 40 41 43 37 40 41 44 44 42 47 49 48 47 51 50 49 46 51 49 55 62 86 87 75 91 95 96 86 70 72 62 40 22 11 5 15 7 16 14 7 8 14 8 3 18 20 39 60 61 49 56 66 70
45 40 38 39 43 40 42 44 41 43 49 52 51 52 55 53 49 47 50 52 58 42 24 65 68 60 49 54 82 101 109 80 76 70 37 21 27 26 7 5 15 12 25 13 25 5 9 47 57 67 69 75 73 71
45 44 44 42 44 45 43 47 47 51 57 56 58 54 61 57 57 51 55 58 60 58 27 52 82 99 92 81 79 76 95 90 75 35 17 28 35 21 5 4 11 19 16 16 21 25 28 58 54 53 58 62 68 74
49 46 45 45 48 46 48 46 53 58 58 55 56 55 54 53 49 48 48 48 52 72 33 13 59 87 72 61 84 72 92 89 71 62 19 37 32 26 9 20 24 42 47 52 54 49 67 105 71 63 71 88 96 90
51 50 48 47 47 50 48 52 55 57 55 55 50 47 45 44 41 51 23 24 34 26 16 8 12 10 22 36 51 52 59 54 55 61 41 56 36 30 25 41 60 79 77 76 86 76 70 95 68 74 85 100 83 88
48 51 49 46 49 46 50 53 53 52 51 44 42 41 44 46 49 59 64 63 59 64 40 10 10 13 26 17 15 29 37 39 38 29 18 26 36 24 23 9 52 80 84 87 81 63 80 87 84 92 108 97 96 103
43 47 44 47 45 48 51 50 47 46 42 40 42 44 47 48 52 64 47 43 45 47 11 7 4 14 17 13 13 10 22 10 28 15 25 22 18 14 10 38 60 71 72 77 71 83 100 91 87 98 99 93 96 104
46 46 48 47 47 48 45 45 45 40 40 41 39 24 11 15 23 27 20 12 18 22 25 16 44 18 24 22 12 7 11 8 7 14 14 15 29 62 59 60 67 73 90 83 73 71 67 73 88 93 95 98 89 90
49 48 49 51 49 48 47 42 38 34 36 29 12 16 18 16 12 8 9 8 13 5 16 24 47 25 33 8 18 18 6 6 5 9 7 3 8 29 76 79 101 105 113 100 104 94 98 97 94 90 100 97 88 83
46 46 44 41 44 46 42 40 35 34 32 23 16 27 17 12 14 4 7 9 5 11 8 5 20 41 27 33 12 8 8 2 12 5 7 5 13 60 80 89 90 94 97 92 88 93 96 96 94 90 89 83 76 66
41 37 41 46 41 41 39 37 34 34 32 41 18 10 12 12 4 10 10 10 5 9 13 12 14 12 12 22 6 6 11 12 5 5 9 14 28 58 62 68 71 67 62 61 60 61 61 70 68 69 66 58 54 58
43 43 42 40 41 38 35 33 30 27 27 13 8 7 9 6 9 10 11 10 17 15 33 31 17 9 13 7 5 9 2 5 8 5 14 6 32 62 59 53 51 47 38 43 39 39 41 39 38 32 37 49 57 56
43 39 43 48 44 39 40 39 37 33 25 17 12 10 11 22 20 21 25 21 37 44 41 18 16 13 4 3 2 7 3 9 12 12 6 14 9 15 14 15 18 20 27 34 39 34 33 32 35 38 40 45 47 44
37 43 41 36 35 37 38 40 42 40 15 13 13 5 8 2 13 30 48 48 49 33 21 12 8 7 9 4 5 14 11 13 8 6 18 18 19 15 16 27 32 27 28 28 27 27 31 34 37 37 32 36 38 38
38 51 45 42 37 26 26 36 37 21 10 10 13 37 37 38 39 53 53 53 32 11 5 4 10 12 1 2 6 8 9 7 12 17 17 9 11 18 22 20 21 23 22 20 17 19 21 24 26 25 24 27 31 34
50 46 35 33 28 22 18 23 11 11 14 29 7 35 44 54 52 64 58 47 31 14 9 9 6 4 7 7 6 6 26 26 26 21 10 9 12 17 26 26 24 20 19 18 16 16 18 20 21 25 28 28 27 30
37 35 32 33 37 28 14 17 18 10 27 19 33 43 40 33 46 55 51 44 34 27 11 6 5 7 9 7 8 31 30 23 7 11 14 9 12 27 34 28 25 26 25 26 26 25 24 24 26 28 29 29 26 24
26 23 23 38 45 28 13 12 18 13 9 12 21 18 16 19 22 26 28 24 24 9 10 7 11 22 9 17 25 33 14 3 3 6 7 5 13 22 26 40 32 21 27 31 30 29 29 29 30 30 31 28 24 19
28 24 21 42 45 30 18 14 18 11 8 12 10 11 12 15 14 10 10 14 18 11 7 32 47 48 43 45 45 29 18 14 12 13 17 19 27 29 21 16 20 19 24 30 34 34 33 30 29 28 26 23 21 18
26 28 30 40 20 22 21 20 9 8 9 7 7 7 10 4 7 9 8 15 15 25 33 42 49 38 35 45 39 32 21 19 15 13 16 18 23 25 22 23 15 16 22 27 33 35 32 29 27 25 23 19 19 18
25 22 22 18 10 17 8 14 11 8 4 3 2 4 6 6 7 7 5 15 16 16 33 42 47 44 40 11 4 8 9 13 13 9 14 15 19 23 24 21 17 16 20 25 32 35 35 30 26 22 18 17 17 17
26 15 13 17 12 8 10 6 7 4 3 3 5 7 7 6 5 2 7 11 16 25 37 39 40 38 26 7 4 6 14 12 13 11 16 18 18 20 26 27 23 21 22 28 26 29 32 27 22 19 17 17 17 16
10 9 9 4 8 7 6 2 2 4 8 3 4 8 3 5 1 5 7 9 13 16 22 22 24 27 26 25 22 17 14 13 15 17 20 23 22 19 21 23 24 20 17 19 23 23 25 23 19 19 18 18 18 17
6 11 12 12 4 10 12 10 12 14 7 5 11 6 3 5 4 12 7 9 11 8 16 18 24 28 29 27 28 21 19 16 16 19 22 25 24 20 20 25 23 19 19 16 19 20 17 16 14 17 17 18 20 17
7 10 10 12 9 13 6 6 8 6 9 12 7 6 5 5 11 9 13 17 15 9 15 13 9 9 7 5 7 7 11 14 19 22 25 29 29 24 22 24 25 24 19 14 14 13 8 9 7 11 13 14 17 19
15 19 13 18 11 9 9 5 10 14 10 14 17 9 15 17 12 25 25 18 12 19 26 30 26 18 17 19 12 8 7 9 16 22 27 31 32 26 24 25 26 22 17 14 12 9 4 1 1 4 8 10 16 22
10 15 21 6 3 7 12 16 12 19 18 32 12 10 12 25 45 50 47 46 42 40 43 45 40 39 35 30 29 24 25 27 27 31 35 39 32 25 27 28 25 19 15 15 14 14 12 9 6 8 10 12 16 21
8 23 7 4 11 13 16 34 17 22 25 31 19 18 33 57 63 63 63 65 66 67 62 55 54 54 52 52 52 49 44 43 45 46 48 45 35 29 26 27 23 18 15 15 15 17 20 15 12 14 16 18 22 26
9 18 4 7 10 15 22 30 36 36 27 28 45 44 54 45 57 60 66 69 67 66 65 66 66 67 65 64 61 61 63 55 53 52 54 52 44 38 34 30 23 20 18 17 17 17 19 20 17 19 20 22 27 29
10 14 7 6 9 14 18 13 13 15 17 19 24 24 24 17 14 31 31 35 42 43 48 52 60 65 66 69 71 73 71 63 59 58 58 51 42 37 40 37 30 27 25 23 22 23 23 21 19 22 25 27 30 33
5 9 9 9 11 10 12 9 7 8 10 10 16 16 14 10 10 9 10 14 19 21 23 26 31 36 40 47 53 56 60 61 60 61 56 48 44 41 39 39 36 30 29 29 28 28 26 24 23 26 29 32 35 37
Wind_Direction_500mb
283 280 281 282 286 286 293 283 289 281 285 280 275 281 276 282 273 261 263 255 261 266 269 265 255 242 237 228 238 238 200 207 194 223 228 204 212 210 170 185 173 166 170 191 143 208 275 182 116 186 209 221 187 201
274 276 278 280 281 285 287 281 280 279 281 286 282 280 274 274 268 268 264 263 267 267 264 275 279 259 253 249 251 219 246 176 205 211 243 156 228 171 176 243 116 228 194 185 190 208 222 185 207 217 225 234 233 279
271 272 278 284 284 283 279 278 280 276 282 284 282 278 278 275 267 263 266 273 275 267 281 271 267 273 264 263 253 248 250 245 239 239 191 219 251 126 212 238 133 259 178 218 111 202 231 228 234 244 248 254 268 286
265 268 278 279 285 280 291 287 285 285 286 283 281 277 274 265 261 262 264 273 274 273 269 279 274 272 258 260 253 246 248 239 255 242 231 242 248 190 237 246 209 200 155 182 252 218 284 255 252 259 264 267 271 286
269 269 282 280 274 281 280 283 286 289 291 286 283 276 275 274 267 260 266 267 267 250 277 286 290 271 277 271 267 268 249 243 239 235 221 233 242 236 186 128 223 188 177 192 238 146 215 260 262 263 263 264 284 286
269 272 276 276 275 277 281 282 289 290 292 285 278 276 276 272 273 271 273 271 271 256 250 258 272 279 284 281 259 257 252 243 240 239 234 227 226 196 239 243 227 206 226 242 255 261 259 266 267 258 272 285 285 288
268 272 271 273 274 276 279 287 287 289 285 282 284 283 282 281 270 254 251 279 285 277 265 285 292 297 299 309 262 251 250 242 241 245 244 248 242 223 242 252 259 261 258 258 262 259 253 256 260 264 277 282 284 281
270 271 271 269 271 276 284 286 285 285 282 284 287 286 284 279 274 268 268 268 269 266 255 242 252 282 280 262 239 262 242 240 239 257 250 232 233 226 236 217 248 254 257 263 261 253 257 265 263 270 278 277 277 279
268 269 274 270 274 281 283 283 282 282 284 288 287 286 283 276 267 273 284 277 262 249 263 257 184 278 229 252 272 254 242 240 247 244 236 231 249 243 205 227 237 246 252 253 260 260 258 254 266 272 273 279 277 282
266 265 270 274 277 278 277 275 279 282 283 284 286 280 249 243 272 275 280 226 212 215 228 242 246 241 226 221 246 257 218 267 248 224 180 225 242 244 236 236 241 242 249 255 248 252 257 257 259 268 279 284 283 285
261 275 275 275 272 269 274 277 279 277 285 283 226 226 243 258 269 234 242 206 217 253 228 244 233 244 242 197 229 211 245 257 240 291 239 223 270 234 237 242 250 252 259 257 252 258 263 262 267 271 275 279 284 286
266 275 269 266 265 272 272 271 269 266 264 257 240 275 249 211 207 165 225 299 217 227 250 221 259 226 225 207 180 196 191 310 241 94 290 250 253 254 253 253 256 257 258 259 260 263 268 270 270 272 274 280 283 284
269 262 262 264 272 273 265 265 262 263 263 260 234 228 186 185 195 179 232 269 257 237 235 281 282 260 171 188 184 149 178 216 79 243 222 230 251 265 259 258 260 260 262 266 265 263 261 262 263 265 271 271 274 279
260 266 263 272 275 269 264 255 258 260 255 232 212 218 188 238 236 197 202 218 265 252 281 298 283 246 200 171 169 194 214 73 197 257 233 252 261 279 281 278 272 268 258 255 257 264 269 268 265 257 261 275 282 287
262 255 260 266 263 259 253 249 252 259 248 219 209 216 207 230 254 260 267 267 270 292 291 293 250 222 202 183 78 97 95 243 213 235 246 260 310 337 324 293 280 274 265 267 271 271 273 275 274 270 279 282 286 292
253 266 265 267 269 267 254 247 247 249 232 226 218 242 222 4 280 277 274 270 291 277 287 239 264 256 222 152 131 210 145 225 245 222 250 279 324 318 314 284 301 309 299 295 288 282 280 281 283 284 286 286 291 294
267 264 265 269 273 263 246 238 234 205 227 226 242 228 240 250 250 260 266 266 270 231 226 222 266 243 204 219 246 190 215 239 251 303 326 349 317 325 333 332 327 323 321 320 315 307 296 295 294 297 300 295 298 300
266 269 264 258 229 219 216 214 203 205 229 234 211 248 246 251 250 262 269 265 258 225 204 221 184 256 246 211 240 236 250 286 284 259 263 263 299 343 12 359 351 356 356 353 355 349 342 326 324 325 322 319 315 307
271 260 250 224 205 189 193 206 207 232 233 238 249 252 253 259 261 266 267 264 250 251 268 212 209 220 227 215 232 268 281 264 280 197 240 284 4 16 14 355 2 9 12 10 8 3 354 351 349 343 338 337 335 327
263 247 223 199 197 184 196 214 198 232 234 230 243 246 242 250 256 260 258 250 236 203 211 226 220 246 199 283 299 295 301 299 25 331 259 342 355 357 10 338 346 5 7 8 6 3 2 0 357 353 352 351 351 350
245 230 223 205 183 181 199 206 205 224 220 218 229 229 250 250 254 267 268 235 201 218 231 234 248 257 269 278 287 258 255 279 303 313 313 340 347 341 343 308 331 354 7 4 7 4 2 2 3 0 359 3 10 20
232 234 224 216 232 193 214 207 208 197 215 239 215 246 266 276 236 204 259 220 233 233 231 254 253 257 285 267 261 251 265 278 282 312 312 330 338 342 352 348 337 349 11 8 10 5 3 3 6 7 11 18 28 33
217 216 212 191 173 182 189 186 193 202 206 239 242 353 270 256 223 228 253 234 252 256 255 258 263 268 270 238 220 247 271 281 296 333 324 338 350 348 347 348 335 333 348 1 10 7 3 3 8 12 22 36 44 46
196 190 199 189 185 174 164 160 188 188 215 222 194 266 274 236 322 52 251 264 259 284 285 283 268 276 279 269 122 299 295 306 319 331 327 336 343 350 351 352 345 329 325 338 359 5 1 3 15 21 35 48 53 60
192 202 191 204 166 118 112 92 5 119 234 255 182 284 286 337 303 261 232 271 252 292 306 291 277 257 254 271 278 270 248 271 292 305 314 318 323 329 333 344 344 336 322 323 348 359 5 6 26 38 45 60 65 76
204 200 183 195 193 155 181 171 195 202 165 191 233 279 12 82 20 254 233 230 212 273 289 291 281 278 279 284 283 276 261 255 270 283 295 303 310 319 323 329 336 337 328 315 327 342 3 5 34 52 56 68 79 88
230 243 192 187 173 143 102 84 111 110 166 198 210 132 95 171 241 252 253 240 262 326 333 328 276 279 289 290 283 273 266 267 267 270 274 281 294 306 311 312 316 315 315 311 308 318 341 8 35 68 82 81 97 107
228 178 173 174 177 188 142 135 172 206 218 178 126 179 188 199 228 244 259 247 239 297 294 293 298 292 294 297 295 294 298 305 299 284 273 275 288 298 291 291 294 298 301 293 278 274 260 27 65 107 128 138 132 130
206 183 157 135 119 205 219 194 211 222 197 174 175 211 225 233 260 271 275 275 275 272 271 270 273 278 271 260 247 254 279 294 296 297 292 291 293 286 283 283 285 292 287 271 246 225 210 184 173 170 158 158 157 153
206 178 137 153 179 217 234 202 221 229 220 218 233 249 258 262 270 276 276 275 272 272 273 268 265 260 258 256 252 252 262 273 279 278 279 284 286 282 276 271 275 276 262 247 228 218 214 195 192 192 185 176 173 168
186 187 221 213 232 240 237 237 242 250 251 250 251 247 255 271 273 274 271 269 265 263 261 258 255 254 252 251 255 263 266 267 266 266 267 269 271 267 260 257 258 254 237 227 220 216 209 201 201 192 192 185 181 177
207 205 177 229 261 256 264 241 232 229 231 236 250 240 252 250 252 267 255 253 255 258 260 258 256 253 253 255 255 257 262 264 262 262 261 261 262 256 247 243 243 242 233 222 211 209 210 213 212 202 196 188 187 181
248 215 235 284 304 290 217 216 242 283 238 239 240 229 226 233 251 279 299 281 293 293 284 275 267 262 256 253 252 252 254 254 253 251 253 254 249 244 239 233 232 230 222 216 210 208 214 215 211 204 197 190 189 185
Wind_Speed_850mb
40 36 33 33 32 34 34 32 37 39 36 38 40 43 41 44 40 37 50 57 53 52 77 71 52 52 28 39 23 14 11 13 12 20 14 10 10 18 6 12 20 19 20 10 5 10 20 28 16 16 14 6 21 28
39 36 39 38 39 39 38 40 37 42 45 42 43 42 47 45 43 42 55 50 50 68 74 40 49 69 82 83 55 28 10 8 28 9 3 3 9 6 13 25 3 8 17 14 27 20 11 55 29 55 20 24 27 30
39 40 41 43 37 40 41 44 44 42 47 49 48 47 51 50 49 46 51 49 55 62 86 87 75 91 95 96 86 70 72 62 40 22 11 5 15 7 16 14 7 8 14 8 3 18 20 39 60 61 49 56 66 70
45 40 38 39 43 40 42 44 41 43 49 52 51 52 55 53 49 47 50 52 58 42 24 65 68 60 49 54 82 101 109 80 76 70 37 21 27 26 7 5 15 12 25 13 25 5 9 47 57 67 69 75 73 71
45 44 44 42 44 45 43 47 47 51 57 56 58 54 61 57 57 51 55 58 60 58 27 52 82 99 92 81 79 76 95 90 75 35 17 28 35 21 5 4 11 19 16 16 21 25 28 58 54 53 58 62 68 74
49 46 45 45 48 46 48 46 53 58 58 55 56 55 54 53 49 48 48 48 52 72 33 13 59 87 72 61 84 72 92 89 71 62 19 37 32 26 9 20 24 42 47 52 54 49 67 105 71 63 71 88 96 90
51 50 48 47 47 50 48 52 55 57 55 55 50 47 45 44 41 51 23 24 34 26 16 8 12 10 22 36 51 52 59 54 55 61 41 56 36 30 25 41 60 79 77 76 86 76 70 95 68 74 85 100 83 88
48 51 49 46 49 46 50 53 53 52 51 44 42 41 44 46 49 59 64 63 59 64 40 10 10 13 26 17 15 29 37 39 38 29 18 26 36 24 23 9 52 80 84 87 81 63 80 87 84 92 108 97 96 103
43 47 44 47 45 48 51 50 47 46 42 40 42 44 47 48 52 64 47 43 45 47 11 7 4 14 17 13 13 10 22 10 28 15 25 22 18 14 10 38 60 71 72 77 71 83 100 91 87 98 99 93 96 104
46 46 48 47 47 48 45 45 45 40 40 41 39 24 11 15 23 27 20 12 18 22 25 16 44 18 24 22 12 7 11 8 7 14 14 15 29 62 59 60 67 73 90 83 73 71 67 73 88 93 95 98 89 90
49 48 49 51 49 48 47 42 38 34 36 29 12 16 18 16 12 8 9 8 13 5 16 24 47 25 33 8 18 18 6 6 5 9 7 3 8 29 76 79 101 105 113 100 104 94 98 97 94 90 100 97 88 83
46 46 44 41 44 46 42 40 35 34 32 23 16 27 17 12 14 4 7 9 5 11 8 5 20 41 27 33 12 8 8 2 12 5 7 5 13 60 80 89 90 94 97 92 88 93 96 96 94 90 89 83 76 66
41 37 41 46 41 41 39 37 34 34 32 41 18 10 12 12 4 10 10 10 5 9 13 12 14 12 12 22 6 6 11 12 5 5 9 14 28 58 62 68 71 67 62 61 60 61 61 70 68 69 66 58 54 58
43 43 42 40 41 38 35 33 30 27 27 13 8 7 9 6 9 10 11 10 17 15 33 31 17 9 13 7 5 9 2 5 8 5 14 6 32 62 59 53 51 47 38 43 39 39 41 39 38 32 37 49 57 56
43 39 43 48 44 39 40 39 37 33 25 17 12 10 11 22 20 21 25 21 37 44 41 18 16 13 4 3 2 7 3 9 12 12 6 14 9 15 14 15 18 20 27 34 39 34 33 32 35 38 40 45 47 44
37 43 41 36 35 37 38 40 42 40 15 13 13 5 8 2 13 30 48 48 49 33 21 12 8 7 9 4 5 14 11 13 8 6 18 18 19 15 16 27 32 27 28 28 27 27 31 34 37 37 32 36 38 38
38 51 45 42 37 26 26 36 37 21 10 10 13 37 37 38 39 53 53 53 32 11 5 4 10 12 1 2 6 8 9 7 12 17 17 9 11 18 22 20 21 23 22 20 17 19 21 24 26 25 24 27 31 34
50 46 35 33 28 22 18 23 11 11 14 29 7 35 44 54 52 64 58 47 31 14 9 9 6 4 7 7 6 6 26 26 26 21 10 9 12 17 26 26 24 20 19 18 16 16 18 20 21 25 28 28 27 30
37 35 32 33 37 28 14 17 18 10 27 19 33 43 40 33 46 55 51 44 34 27 11 6 5 7 9 7 8 31 30 23 7 11 14 9 12 27 34 28 25 26 25 26 26 25 24 24 26 28 29 29 26 24
26 23 23 38 45 28 13 12 18 13 9 12 21 18 16 19 22 26 28 24 24 9 10 7 11 22 9 17 25 33 14 3 3 6 7 5 13 22 26 40 32 21 27 31 30 29 29 29 30 30 31 28 24 19
28 24 21 42 45 30 18 14 18 11 8 12 10 11 12 15 14 10 10 14 18 11 7 32 47 48 43 45 45 29 18 14 12 13 17 19 27 29 21 16 20 19 24 30 34 34 33 30 29 28 26 23 21 18
26 28 30 40 20 22 21 20 9 8 9 7 7 7 10 4 7 9 8 15 15 25 33 42 49 38 35 45 39 32 21 19 15 13 16 18 23 25 22 23 15 16 22 27 33 35 32 29 27 25 23 19 19 18
25 22 22 18 10 17 8 14 11 8 4 3 2 4 6 6 7 7 5 15 16 16 33 42 47 44 40 11 4 8 9 13 13 9 14 15 19 23 24 21 17 16 20 25 32 35 35 30 26 22 18 17 17 17
26 15 13 17 12 8 10 6 7 4 3 3 5 7 7 6 5 2 7 11 16 25 37 39 40 38 26 7 4 6 14 12 13 11 16 18 18 20 26 27 23 21 22 28 26 29 32 27 22 19 17 17 17 16
10 9 9 4 8 7 6 2 2 4 8 3 4 8 3 5 1 5 7 9 13 16 22 22 24 27 26 25 22 17 14 13 15 17 20 23 22 19 21 23 24 20 17 19 23 23 25 23 19 19 18 18 18 17
6 11 12 12 4 10 12 10 12 14 7 5 11 6 3 5 4 12 7 9 11 8 16 18 24 28 29 27 28 21 19 16 16 19 22 25 24 20 20 25 23 19 19 16 19 20 17 16 14 17 17 18 20 17
7 10 10 12 9 13 6 6 8 6 9 12 7 6 5 5 11 9 13 17 15 9 15 13 9 9 7 5 7 7 11 14 19 22 25 29 29 24 22 24 25 24 19 14 14 13 8 9 7 11 13 14 17 19
15 19 13 18 11 9 9 5 10 14 10 14 17 9 15 17 12 25 25 18 12 19 26 30 26 18 17 19 12 8 7 9 16 22 27 31 32 26 24 25 26 22 17 14 12 9 4 1 1 4 8 10 16 22
10 15 21 6 3 7 12 16 12 19 18 32 12 10 12 25 45 50 47 46 42 40 43 45 40 39 35 30 29 24 25 27 27 31 35 39 32 25 27 28 25 19 15 15 14 14 12 9 6 8 10 12 16 21
8 23 7 4 11 13 16 34 17 22 25 31 19 18 33 57 63 63 63 65 66 67 62 55 54 54 52 52 52 49 44 43 45 46 48 45 35 29 26 27 23 18 15 15 15 17 20 15 12 14 16 18 22 26
9 18 4 7 10 15 22 30 36 36 27 28 45 44 54 45 57 60 66 69 67 66 65 66 66 67 65 64 61 61 63 55 53 52 54 52 44 38 34 30 23 20 18 17 17 17 19 20 17 19 20 22 27 29
10 14 7 6 9 14 18 13 13 15 17 19 24 24 24 17 14 31 31 35 42 43 48 52 60 65 66 69 71 73 71 63 59 58 58 51 42 37 40 37 30 27 25 23 22 23 23 21 19 22 25 27 30 33
5 9 9 9 11 10 12 9 7 8 10 10 16 16 14 10 10 9 10 14 19 21 23 26 31 36 40 47 53 56 60 61 60 61 56 48 44 41 39 39 36 30 29 29 28 28 26 24 23 26 29 32 35 37
Wind_Direction_850mb
283 280 281 282 286 286 293 283 289 281 285 280 275 281 276 282 273 261 263 255 261 266 269 265 255 242 237 228 238 238 200 207 194 223 228 204 212 210 170 185 173 166 170 191 143 208 275 182 116 186 209 221 187 201
274 276 278 280 281 285 287 281 280 279 281 286 282 280 274 274 268 268 264 263 267 267 264 275 279 259 253 249 251 219 246 176 205 211 243 156 228 171 176 243 116 228 194 185 190 208 222 185 207 217 225 234 233 279
271 272 278 284 284 283 279 278 280 276 282 284 282 278 278 275 267 263 266 273 275 267 281 271 267 273 264 263 253 248 250 245 239 239 191 219 251 126 212 238 133 259 178 218 111 202 231 228 234 244 248 254 268 286
265 268 278 279 285 280 291 287 285 285 286 283 281 277 274 265 261 262 264 273 274 273 269 279 274 272 258 260 253 246 248 239 255 242 231 242 248 190 237 246 209 200 155 182 252 218 284 255 252 259 264 267 271 286
269 269 282 280 274 281 280 283 286 289 291 286 283 276 275 274 267 260 266 267 267 250 277 286 290 271 277 271 267 268 249 243 239 235 221 233 242 236 186 128 223 188 177 192 238 146 215 260 262 263 263 264 284 286
269 272 276 276 275 277 281 282 289 290 292 285 278 276 276 272 273 271 273 271 271 256 250 258 272 279 284 281 259 257 252 243 240 239 234 227 226 196 239 243 227 206 226 242 255 261 259 266 267 258 272 285 285 288
268 272 271 273 274 276 279 287 287 289 285 282 284 283 282 281 270 254 251 279 285 277 265 285 292 297 299 309 262 251 250 242 241 245 244 248 242 223 242 252 259 261 258 258 262 259 253 256 260 264 277 282 284 281
270 271 271 269 271 276 284 286 285 285 282 284 287 286 284 279 274 268 268 268 269 266 255 242 252 282 280 262 239 262 242 240 239 257 250 232 233 226 236 217 248 254 257 263 261 253 257 265 263 270 278 277 277 279
268 269 274 270 274 281 283 283 282 282 284 288 287 286 283 276 267 273 284 277 262 249 263 257 184 278 229 252 272 254 242 240 247 244 236 231 249 243 205 227 237 246 252 253 260 260 258 254 266 272 273 279 277 282
266 265 270 274 277 278 277 275 279 282 283 284 286 280 249 243 272 275 280 226 212 215 228 242 246 241 226 221 246 257 218 267 248 224 180 225 242 244 236 236 241 242 249 255 248 252 257 257 259 268 279 284 283 285
261 275 275 275 272 269 274 277 279 277 285 283 226 226 243 258 269 234 242 206 217 253 228 244 233 244 242 197 229 211 245 257 240 291 239 223 270 234 237 242 250 252 259 257 252 258 263 262 267 271 275 279 284 286
266 275 269 266 265 272 272 271 269 266 264 257 240 275 249 211 207 165 225 299 217 227 250 221 259 226 225 207 180 196 191 310 241 94 290 250 253 254 253 253 256 257 258 259 260 263 268 270 270 272 274 280 283 284
269 262 262 264 272 273 265 265 262 263 263 260 234 228 186 185 195 179 232 269 257 237 235 281 282 260 171 188 184 149 178 216 79 243 222 230 251 265 259 258 260 260 262 266 265 263 261 262 263 265 271 271 274 279
260 266 263 272 275 269 264 255 258 260 255 232 212 218 188 238 236 197 202 218 265 252 281 298 283 246 200 171 169 194 214 73 197 257 233 252 261 279 281 278 272 268 258 255 257 264 269 268 265 257 261 275 282 287
262 255 260 266 263 259 253 249 252 259 248 219 209 216 207 230 254 260 267 267 270 292 291 293 250 222 202 183 78 97 95 243 213 235 246 260 310 337 324 293 280 274 265 267 271 271 273 275 274 270 279 282 286 292
253 266 265 267 269 267 254 247 247 249 232 226 218 242 222 4 280 277 274 270 291 277 287 239 264 256 222 152 131 210 145 225 245 222 250 279 324 318 314 284 301 309 299 295 288 282 280 281 283 284 286 286 291 294
267 264 265 269 273 263 246 238 234 205 227 226 242 228 240 250 250 260 266 266 270 231 226 222 266 243 204 219 246 190 215 239 251 303 326 349 317 325 333 332 327 323 321 320 315 307 296 295 294 297 300 295 298 300
266 269 264 258 229 219 216 214 203 205 229 234 211 248 246 251 250 262 269 265 258 225 204 221 184 256 246 211 240 236 250 286 284 259 263 263 299 343 12 359 351 356 356 353 355 349 342 326 324 325 322 319 315 307
271 260 250 224 205 189 193 206 207 232 233 238 249 252 253 259 261 266 267 264 250 251 268 212 209 220 227 215 232 268 281 264 280 197 240 284 4 16 14 355 2 9 12 10 8 3 354 351 349 343 338 337 335 327
263 247 223 199 197 184 196 214 198 232 234 230 243 246 242 250 256 260 258 250 236 203 211 226 220 246 199 283 299 295 301 299 25 331 259 342 355 357 10 338 346 5 7 8 6 3 2 0 357 353 352 351 351 350
245 230 223 205 183 181 199 206 205 224 220 218 229 229 250 250 254 267 268 235 201 218 231 234 248 257 269 278 287 258 255 279 303 313 313 340 347 341 343 308 331 354 7 4 7 4 2 2 3 0 359 3 10 20
232 234 224 216 232 193 214 207 208 197 215 239 215 246 266 276 236 204 259 220 233 233 231 254 253 257 285 267 261 251 265 278 282 312 312 330 338 342 352 348 337 349 11 8 10 5 3 3 6 7 11 18 28 33
217 216 212 191 173 182 189 186 193 202 206 239 242 353 270 256 223 228 253 234 252 256 255 258 263 268 270 238 220 247 271 281 296 333 324 338 350 348 347 348 335 333 348 1 10 7 3 3 8 12 22 36 44 46
196 190 199 189 185 174 164 160 188 188 215 222 194 266 274 236 322 52 251 264 259 284 285 283 268 276 279 269 122 299 295 306 319 331 327 336 343 350 351 352 345 329 325 338 359 5 1 3 15 21 35 48 53 60
192 202 191 204 166 118 112 92 5 119 234 255 182 284 286 337 303 261 232 271 252 292 306 291 277 257 254 271 278 270 248 271 292 305 314 318 323 329 333 344 344 336 322 323 348 359 5 6 26 38 45 60 65 76
204 200 183 195 193 155 181 171 195 202 165 191 233 279 12 82 20 254 233 230 212 273 289 291 281 278 279 284 283 276 261 255 270 283 295 303 310 319 323 329 336 337 328 315 327 342 3 5 34 52 56 68 79 88
230 243 192 187 173 143 102 84 111 110 166 198 210 132 95 171 241 252 253 240 262 326 333 328 276 279 289 290 283 273 266 267 267 270 274 281 294 306 311 312 316 315 315 311 308 318 341 8 35 68 82 81 97 107
228 178 173 174 177 188 142 135 172 206 218 178 126 179 188 199 228 244 259 247 239 297 294 293 298 292 294 297 295 294 298 305 299 284 273 275 288 298 291 291 294 298 301 293 278 274 260 27 65 107 128 138 132 130
206 183 157 135 119 205 219 194 211 222 197 174 175 211 225 233 260 271 275 275 275 272 271 270 273 278 271 260 247 254 279 294 296 297 292 291 293 286 283 283 285 292 287 271 246 225 210 184 173 170 158 158 157 153
206 178 137 153 179 217 234 202 221 229 220 218 233 249 258 262 270 276 276 275 272 272 273 268 265 260 258 256 252 252 262 273 279 278 279 284 286 282 276 271 275 276 262 247 228 218 214 195 192 192 185 176 173 168
186 187 221 213 232 240 237 237 242 250 251 250 251 247 255 271 273 274 271 269 265 263 261 258 255 254 252 251 255 263 266 267 266 266 267 269 271 267 260 257 258 254 237 227 220 216 209 201 201 192 192 185 181 177
207 205 177 229 261 256 264 241 232 229 231 236 250 240 252 250 252 267 255 253 255 258 260 258 256 253 253 255 255 257 262 264 262 262 261 261 262 256 247 243 243 242 233 222 211 209 210 213 212 202 196 188 187 181
248 215 235 284 304 290 217 216 242 283 238 239 240 229 226 233 251 279 299 281 293 293 284 275 267 262 256 253 252 252 254 254 253 251 253 254 249 244 239 233 232 230 222 216 210 208 214 215 211 204 197 190 189 185